Wind_Speed
4 6 7 6 7 7 7 7 7 7 9 10 11 12 13 14 17 18 20 23 24 25
5 6 6 7 7 7 7 7 7 9 9 9 10 10 11 14 16 17 20 23 25 27
6 5 6 7 8 8 8 9 10 11 10 9 9 9 10 14 14 16 19 22 26 27
6 5 6 7 8 9 9 10 11 12 13 13 13 12 12 13 15 18 21 24 26 29
7 6 7 9 10 11 11 12 13 14 14 15 15 14 13 14 17 21 25 27 29 32
8 7 7 9 10 11 12 14 15 16 15 15 14 14 14 15 17 18 20 23 27 26
8 8 9 9 10 11 13 15 15 15 15 14 13 13 13 11 13 14 17 21 25 27
10 9 10 11 12 13 14 14 14 14 14 14 14 13 6 9 10 12 15 19 28 33
11 12 13 13 13 14 14 14 13 13 13 14 14 10 6 5 9 11 13 18 23 32
11 12 12 12 13 13 13 14 14 13 13 12 12 12 11 7 7 9 10 12 17 26
12 12 12 11 12 13 14 13 13 13 11 12 14 13 15 13 12 10 10 11 14 20
13 12 12 12 13 12 12 12 13 12 11 13 15 16 15 18 17 16 16 15 18 16
12 12 13 13 13 12 11 11 10 11 12 14 15 14 15 16 19 19 20 20 22 22
12 13 13 13 13 12 12 12 12 13 12 13 10 10 11 11 16 19 21 23 21 22
Wind_Direction
252 284 287 296 309 307 311 310 308 310 314 314 313 305 299 296 292 290 283 281 277 270
266 266 291 291 286 291 294 300 298 307 309 310 319 315 306 297 295 294 291 286 280 273
268 256 275 286 287 285 285 288 297 302 297 297 304 321 323 319 315 307 301 296 292 284
255 262 275 285 286 283 280 283 292 300 301 295 294 297 310 314 320 323 317 310 300 291
251 256 270 279 284 284 279 281 294 301 298 294 288 286 294 304 314 320 320 316 309 297
248 251 269 279 286 290 291 290 294 293 287 293 290 292 287 301 316 327 328 324 315 308
247 258 271 281 290 295 298 298 295 296 285 287 290 295 285 294 316 330 332 344 325 324
254 267 271 282 290 295 295 298 297 301 296 290 290 290 266 297 312 323 324 345 351 350
261 267 270 277 283 294 295 297 297 302 301 299 296 279 245 302 313 321 321 327 348 359
256 260 267 284 287 290 302 301 300 301 301 296 297 276 238 273 286 324 335 328 330 357
255 262 264 273 278 285 299 299 293 293 296 297 302 293 248 255 271 289 311 318 326 342
255 264 267 272 275 290 293 291 289 285 286 294 303 309 286 256 272 283 307 303 315 328
261 263 273 275 280 289 278 280 297 292 291 296 300 302 292 276 262 280 298 306 311 316
256 258 256 271 274 272 265 285 291 299 299 298 310 313 305 298 256 276 297 305 313 328
Height
826 826 826 824 824 822 821 820 820 819 817 815 813 811 809 806 803 801 799 796 794 792
824 824 824 823 822 820 820 818 817 816 813 812 811 809 806 802 800 798 795 792 789 786
821 821 821 820 820 818 817 816 815 812 811 809 807 805 803 800 797 795 792 789 785 781
818 818 818 817 816 815 814 813 812 810 807 806 804 802 801 799 796 793 789 785 781 776
816 815 815 814 813 812 811 810 809 807 805 803 800 799 797 795 793 790 786 781 776 771
813 812 812 811 811 809 808 807 805 804 802 800 797 794 793 791 790 785 782 776 770 762
809 809 808 808 807 806 805 803 802 800 798 795 793 790 788 787 785 782 778 773 765 757
805 805 804 804 803 803 801 799 797 796 794 791 788 784 784 783 781 778 774 768 761 753
800 801 800 800 799 799 797 795 793 791 789 787 784 780 781 779 777 773 769 765 758 751
796 796 796 796 796 795 793 791 789 788 785 783 780 777 777 775 773 769 765 761 756 746
791 791 792 792 791 791 788 787 785 783 781 779 775 773 771 770 768 764 761 757 753 746
785 786 787 788 787 786 785 783 781 779 777 775 772 769 767 766 763 760 756 753 748 744
780 781 782 782 782 782 781 778 776 775 773 770 768 766 763 761 759 756 753 749 743 739
775 776 776 777 778 778 777 776 774 772 770 766 763 762 759 756 755 753 749 745 739 735